N216TB TIST-TJPS

Flight info

Callsign N216TB
Flight time 0h 38m
Altitude 6000
Route PALCO7 PALCO DCT TUUNA DCT
Aircraft K100/L-L/C

Departure

Time 2026-04-27 18:21
Airport Cyril E. King Airport (TIST)

Arrival

Time 2026-04-27 19:00
Airport Mercedita International Airport (TJPS)
Time Latitude Longitude Altitude Speed Heading
2026-04-27 18:07 18.33891 -64.96730 45 ft 0 kts 177°
2026-04-27 18:16 18.33900 -64.96731 17 ft 2 kts 146°
2026-04-27 18:16 18.33911 -64.96749 18 ft 9 kts 133°
2026-04-27 18:16 18.33912 -64.96750 18 ft 0 kts 133°
2026-04-27 18:17 18.33909 -64.96742 18 ft 1 kts 79°
2026-04-27 18:17 18.33887 -64.96690 17 ft 15 kts 170°
2026-04-27 18:17 18.33835 -64.96768 17 ft 20 kts 268°
2026-04-27 18:17 18.33827 -64.96941 19 ft 28 kts 271°
2026-04-27 18:18 18.33819 -64.97182 22 ft 29 kts 268°
2026-04-27 18:18 18.33815 -64.97303 23 ft 25 kts 268°
2026-04-27 18:18 18.33807 -64.97399 24 ft 13 kts 237°
2026-04-27 18:18 18.33767 -64.97439 26 ft 0 kts 218°
2026-04-27 18:20 18.33753 -64.97449 26 ft 7 kts 200°
2026-04-27 18:21 18.33723 -64.97393 26 ft 16 kts 93°
2026-04-27 18:21 18.33737 -64.96811 79 ft 93 kts 97°
2026-04-27 18:21 18.33773 -64.96310 282 ft 107 kts 88°
2026-04-27 18:21 18.33845 -64.95113 644 ft 131 kts 92°
2026-04-27 18:22 18.33829 -64.94480 936 ft 132 kts 107°
2026-04-27 18:22 18.33210 -64.93808 1380 ft 134 kts 162°
2026-04-27 18:22 18.32320 -64.93988 1848 ft 135 kts 203°
2026-04-27 18:22 18.31519 -64.94491 2288 ft 136 kts 224°
2026-04-27 18:23 18.30803 -64.95551 2880 ft 134 kts 231°
2026-04-27 18:23 18.30441 -64.96095 3176 ft 135 kts 232°
2026-04-27 18:23 18.29920 -64.96896 3597 ft 134 kts 233°
2026-04-27 18:23 18.29401 -64.97699 4034 ft 133 kts 233°
2026-04-27 18:24 18.28889 -64.98500 4465 ft 131 kts 233°
2026-04-27 18:24 18.28380 -64.99294 4904 ft 131 kts 234°
2026-04-27 18:24 18.27871 -65.00091 5329 ft 131 kts 234°
2026-04-27 18:24 18.27355 -65.00879 5762 ft 130 kts 231°
2026-04-27 18:25 18.26843 -65.01654 6198 ft 129 kts 235°
2026-04-27 18:25 18.26357 -65.02436 6623 ft 127 kts 234°
2026-04-27 18:25 18.25868 -65.03205 7039 ft 126 kts 234°
2026-04-27 18:25 18.25433 -65.03976 7455 ft 125 kts 250°
2026-04-27 18:26 18.25387 -65.04890 7891 ft 127 kts 279°
2026-04-27 18:26 18.25606 -65.05872 7998 ft 151 kts 281°
2026-04-27 18:26 18.25843 -65.07017 8007 ft 167 kts 279°
2026-04-27 18:26 18.26080 -65.08236 8006 ft 173 kts 279°
2026-04-27 18:27 18.26328 -65.09492 8006 ft 177 kts 279°
2026-04-27 18:27 18.26584 -65.10763 8006 ft 178 kts 279°
2026-04-27 18:27 18.26843 -65.12040 8009 ft 178 kts 279°
2026-04-27 18:27 18.27101 -65.13321 8009 ft 179 kts 279°
2026-04-27 18:28 18.27359 -65.14584 8009 ft 180 kts 280°
2026-04-27 18:28 18.27619 -65.15872 8006 ft 180 kts 279°
2026-04-27 18:28 18.27879 -65.17163 8007 ft 180 kts 280°
2026-04-27 18:28 18.28140 -65.18452 8005 ft 180 kts 279°
2026-04-27 18:29 18.28400 -65.19741 8009 ft 180 kts 280°
2026-04-27 18:29 18.28660 -65.21029 8011 ft 180 kts 279°
2026-04-27 18:29 18.28920 -65.22318 8009 ft 180 kts 280°
2026-04-27 18:29 18.28987 -65.23614 8004 ft 177 kts 258°
2026-04-27 18:30 18.28584 -65.24802 8008 ft 175 kts 240°
2026-04-27 18:30 18.28031 -65.25942 8005 ft 175 kts 242°
2026-04-27 18:30 18.27492 -65.27092 8007 ft 175 kts 242°
2026-04-27 18:30 18.26947 -65.28238 8002 ft 175 kts 241°
2026-04-27 18:31 18.26400 -65.29387 7999 ft 175 kts 241°
2026-04-27 18:31 18.25855 -65.30533 8004 ft 176 kts 241°
2026-04-27 18:31 18.25309 -65.31682 7999 ft 176 kts 241°
2026-04-27 18:31 18.24761 -65.32832 7998 ft 175 kts 241°
2026-04-27 18:32 18.24215 -65.33980 8001 ft 176 kts 241°
2026-04-27 18:32 18.23674 -65.35115 8001 ft 176 kts 241°
2026-04-27 18:32 18.23126 -65.36266 8001 ft 176 kts 241°
2026-04-27 18:32 18.22577 -65.37417 8002 ft 177 kts 241°
2026-04-27 18:33 18.22025 -65.38577 8003 ft 178 kts 241°
2026-04-27 18:33 18.21472 -65.39737 8001 ft 178 kts 241°
2026-04-27 18:33 18.20920 -65.40896 7998 ft 177 kts 241°
2026-04-27 18:33 18.20369 -65.42052 7998 ft 176 kts 241°
2026-04-27 18:34 18.19829 -65.43185 7998 ft 176 kts 241°
2026-04-27 18:34 18.19283 -65.44331 7998 ft 176 kts 241°
2026-04-27 18:34 18.18735 -65.45477 7998 ft 175 kts 241°
2026-04-27 18:34 18.18188 -65.46622 8000 ft 175 kts 240°
2026-04-27 18:35 18.17644 -65.47764 8000 ft 175 kts 242°
2026-04-27 18:35 18.17098 -65.48908 8000 ft 175 kts 241°
2026-04-27 18:35 18.16551 -65.50057 8002 ft 176 kts 242°
2026-04-27 18:35 18.16005 -65.51203 8000 ft 176 kts 241°
2026-04-27 18:36 18.15456 -65.52349 8002 ft 175 kts 240°
2026-04-27 18:36 18.14910 -65.53491 8004 ft 175 kts 241°
2026-04-27 18:36 18.14372 -65.54616 7996 ft 175 kts 242°
2026-04-27 18:36 18.13826 -65.55760 7999 ft 175 kts 241°
2026-04-27 18:37 18.13281 -65.56900 7996 ft 174 kts 241°
2026-04-27 18:37 18.12738 -65.58035 7996 ft 174 kts 241°
2026-04-27 18:37 18.12196 -65.59172 7996 ft 174 kts 241°
2026-04-27 18:37 18.11651 -65.60311 7996 ft 174 kts 240°
2026-04-27 18:38 18.11108 -65.61447 8000 ft 175 kts 240°
2026-04-27 18:38 18.10561 -65.62591 7998 ft 176 kts 241°
2026-04-27 18:38 18.10012 -65.63739 7999 ft 176 kts 241°
2026-04-27 18:38 18.09460 -65.64890 7998 ft 176 kts 240°
2026-04-27 18:39 18.08916 -65.66027 7998 ft 177 kts 241°
2026-04-27 18:39 18.08365 -65.67180 7997 ft 177 kts 241°
2026-04-27 18:39 18.07812 -65.68334 7996 ft 176 kts 241°
2026-04-27 18:39 18.07262 -65.69484 7997 ft 176 kts 241°
2026-04-27 18:40 18.06715 -65.70627 7995 ft 175 kts 241°
2026-04-27 18:40 18.06168 -65.71767 7999 ft 175 kts 241°
2026-04-27 18:40 18.05621 -65.72908 7997 ft 175 kts 241°
2026-04-27 18:40 18.05080 -65.74038 7995 ft 175 kts 241°
2026-04-27 18:41 18.04533 -65.75180 7995 ft 175 kts 241°
2026-04-27 18:41 18.03983 -65.76326 7994 ft 175 kts 241°
2026-04-27 18:41 18.03436 -65.77468 7995 ft 175 kts 240°
2026-04-27 18:41 18.02886 -65.78614 7998 ft 175 kts 241°
2026-04-27 18:42 18.02339 -65.79757 7994 ft 175 kts 241°
2026-04-27 18:42 18.01975 -65.80514 7990 ft 175 kts 240°
2026-04-27 18:42 18.01244 -65.82038 7990 ft 175 kts 240°
2026-04-27 18:42 18.00697 -65.83177 7990 ft 175 kts 241°
2026-04-27 18:43 18.00157 -65.84302 7989 ft 175 kts 241°
2026-04-27 18:43 17.99611 -65.85440 7989 ft 175 kts 240°
2026-04-27 18:43 17.99063 -65.86580 7990 ft 175 kts 240°
2026-04-27 18:43 17.98515 -65.87721 7992 ft 175 kts 240°
2026-04-27 18:44 17.98136 -65.88935 7992 ft 178 kts 261°
2026-04-27 18:44 17.98160 -65.90243 7993 ft 180 kts 270°
2026-04-27 18:44 17.98218 -65.91558 7995 ft 180 kts 269°
2026-04-27 18:44 17.98269 -65.92875 7991 ft 181 kts 270°
2026-04-27 18:45 17.98326 -65.94198 7995 ft 181 kts 269°
2026-04-27 18:45 17.98382 -65.95515 7869 ft 187 kts 269°
2026-04-27 18:45 17.98442 -65.96900 7680 ft 191 kts 270°
2026-04-27 18:45 17.98501 -65.98301 7490 ft 192 kts 269°
2026-04-27 18:46 17.98561 -65.99703 7300 ft 192 kts 270°
2026-04-27 18:46 17.98621 -66.01109 7113 ft 192 kts 270°
2026-04-27 18:46 17.98678 -66.02512 6929 ft 192 kts 270°
2026-04-27 18:46 17.98736 -66.03913 6740 ft 192 kts 270°
2026-04-27 18:47 17.98796 -66.05313 6560 ft 192 kts 270°
2026-04-27 18:47 17.98854 -66.06710 6375 ft 191 kts 271°
2026-04-27 18:47 17.98913 -66.08084 6178 ft 191 kts 271°
2026-04-27 18:47 17.98972 -66.09477 5981 ft 191 kts 271°
2026-04-27 18:48 17.99029 -66.10870 5788 ft 191 kts 271°
2026-04-27 18:48 17.99087 -66.12265 5588 ft 191 kts 271°
2026-04-27 18:48 17.99146 -66.13655 5396 ft 190 kts 272°
2026-04-27 18:48 17.99203 -66.15045 5207 ft 191 kts 271°
2026-04-27 18:49 17.99260 -66.16434 5011 ft 190 kts 271°
2026-04-27 18:49 17.99317 -66.17802 4827 ft 190 kts 271°
2026-04-27 18:49 17.99375 -66.19194 4631 ft 191 kts 271°
2026-04-27 18:49 17.99434 -66.20586 4437 ft 191 kts 271°
2026-04-27 18:50 17.99488 -66.21994 4249 ft 195 kts 271°
2026-04-27 18:50 17.99547 -66.23433 4056 ft 198 kts 272°
2026-04-27 18:50 17.99608 -66.24880 3864 ft 199 kts 272°
2026-04-27 18:50 17.99667 -66.26325 3663 ft 196 kts 272°
2026-04-27 18:51 17.99727 -66.27744 3465 ft 193 kts 272°
2026-04-27 18:51 17.99784 -66.29147 3276 ft 192 kts 271°
2026-04-27 18:51 17.99841 -66.30549 3081 ft 192 kts 271°
2026-04-27 18:51 17.99897 -66.31921 2992 ft 187 kts 271°
2026-04-27 18:52 17.99951 -66.33271 2990 ft 183 kts 271°
2026-04-27 18:52 18.00005 -66.34598 2980 ft 181 kts 271°
2026-04-27 18:52 18.00058 -66.35909 2981 ft 179 kts 271°
2026-04-27 18:53 18.00164 -66.38524 2979 ft 180 kts 271°
2026-04-27 18:53 18.00217 -66.39834 2982 ft 180 kts 272°
2026-04-27 18:53 18.00269 -66.41150 2913 ft 183 kts 271°
2026-04-27 18:53 18.00321 -66.42482 2721 ft 185 kts 270°
2026-04-27 18:54 18.00587 -66.43788 2530 ft 185 kts 297°
2026-04-27 18:54 18.01291 -66.44936 2341 ft 189 kts 303°
2026-04-27 18:54 18.02013 -66.46093 2185 ft 186 kts 302°
2026-04-27 18:54 18.02701 -66.47223 2056 ft 185 kts 303°
2026-04-27 18:55 18.03396 -66.48363 1856 ft 185 kts 302°
2026-04-27 18:55 18.04086 -66.49492 1788 ft 180 kts 302°
2026-04-27 18:55 18.04763 -66.50590 1790 ft 180 kts 302°
2026-04-27 18:55 18.05443 -66.51697 1790 ft 181 kts 302°
2026-04-27 18:56 18.06130 -66.52814 1788 ft 183 kts 302°
2026-04-27 18:56 18.06823 -66.53940 1790 ft 184 kts 302°
2026-04-27 18:56 18.07318 -66.55141 1829 ft 178 kts 277°
2026-04-27 18:56 18.07162 -66.56304 2010 ft 151 kts 240°
2026-04-27 18:57 18.06563 -66.57217 1858 ft 151 kts 231°
2026-04-27 18:57 18.05974 -66.58096 1813 ft 142 kts 231°
2026-04-27 18:57 18.05410 -66.58935 1641 ft 134 kts 229°
2026-04-27 18:57 18.04774 -66.59599 1437 ft 123 kts 206°
2026-04-27 18:58 18.03986 -66.59790 1256 ft 120 kts 175°
2026-04-27 18:58 18.03195 -66.59499 1003 ft 121 kts 156°
2026-04-27 18:58 18.02448 -66.59192 754 ft 105 kts 159°
2026-04-27 18:58 18.01822 -66.58973 403 ft 94 kts 165°
2026-04-27 18:59 18.01403 -66.58606 318 ft 80 kts 103°
2026-04-27 18:59 18.01359 -66.58023 143 ft 79 kts 116°
2026-04-27 18:59 18.01214 -66.57505 49 ft 72 kts 108°
2026-04-27 18:59 18.01074 -66.57059 37 ft 56 kts 105°
2026-04-27 19:00 18.01014 -66.56867 37 ft 7 kts 24°